{"data":{"norad_id":56337,"intl_designator":"2023-058W","name":"STARLINK-5561","alt_names":[],"object_type":"PAYLOAD","status":"ACTIVE","operator":null,"country":"US","launch_date":"2023-04-27","launch_site_code":"AFWTR","launch_vehicle":null,"mission":null,"orbit_class":"UNKNOWN","rcs_meters":null,"size_class":null,"mass_kg":null,"dimensions":null,"purposes":["comms"],"wikipedia_slug":null,"has_3d_model":false,"image_url":null,"decayed_at":null,"tle_current":{"epoch":"2026-09-20T22:00:03.000096Z","epoch_age_seconds":72758,"freshness":"FRESH","line1":"1 56337U 23058W   26263.91670139  .00720239  00000+0  31241-1 0  9991","line2":"2 56337  97.2849 257.8048 0001606  85.1654  67.4805 15.19908257  5788","mean_motion":15.19908257,"eccentricity":0.0001606,"inclination_deg":97.2849,"raan_deg":257.8048,"arg_perigee_deg":85.1654,"mean_anomaly_deg":67.4805,"bstar":0.031241,"rev_number":578,"period_min":94.742560504427,"perigee_km":505.01201496033,"apogee_km":507.22323754629,"semimajor_km":6884.2546262533,"source":"CELESTRAK","updated_at":"2026-09-21T09:00:33.404473Z"}}}